[[{"header":{"parameterUnit":"m.s-1","parameterCategory":1,"la1":30.2991,"la2":30.254,"lo1":-89.0895,"lo2":-89.0444,"dy":0.0017,"dx":0.0017,"nx":28,"ny":28,"refTime":"2024-05-30T09:00:00:Z","depth":0,"parameterNumber":2,"parameterNumberName":"U-component_of_WINDS"},"data":[0,0,0,0,0,0,0,0,0,0,0,0,0,0,0,0,0,0,0,0,0,0,0,0,0,0,0,0,0,0,0,0,0,0,0,0,0,0,0,0,0,0,0,0,0,0,0,0,0,0,0,0,0,0,0,0,0,0,-3.039,-3.0391,0,-3.0516,-3.0517,-3.0519,-3.0539,-3.0538,-3.0536,-3.0535,-3.0666,-3.067,-3.0675,0,0,0,0,0,0,0,0,0,0,0,0,0,-3.0168,-3.0172,-3.039,-3.0391,-3.0393,-3.0516,-3.0517,-3.0519,-3.0539,-3.0537,-3.0536,-3.0535,-3.0664,-3.067,-3.0675,0,0,0,0,0,0,0,0,0,0,0,0,0,-3.0276,-3.0173,-3.039,-3.0418,-3.0421,-3.0515,-3.0518,-3.052,-3.0539,-3.0537,-3.0536,-3.0534,-3.0663,-3.0669,-3.0676,-3.0751,0,0,-3.0697,-3.0699,0,0,0,0,0,0,0,0,-3.027,-3.0284,-3.0412,-3.0416,-3.042,-3.051,-3.0487,-3.0597,-3.054,-3.0494,-3.0535,-3.0533,-3.0615,-3.0626,-3.0653,-3.0757,-3.0763,-3.0697,-3.0701,-3.0704,-3.0706,0,0,0,0,0,0,0,-3.0262,-3.0279,-3.044,-3.0414,-3.0419,-3.0424,-3.0438,-3.0508,-3.0563,-3.0498,-3.05,-3.0515,-3.0617,-3.0647,-3.0657,-3.0765,-3.0697,-3.0703,-3.0707,-3.071,-3.0937,-3.0939,0,0,0,0,0,0,-3.025,-3.0272,-3.0436,-3.0444,-3.0339,-3.043,-3.0445,-3.0483,-3.0562,-3.0573,-3.0516,-3.0515,-3.0636,-3.0649,-3.0661,-3.0754,-3.0704,-3.071,-3.0714,-3.0935,-3.0937,-3.0939,0,0,0,0,0,0,-3.0245,-3.0264,-3.0431,-3.0359,-3.038,-3.0435,-3.0478,-3.0486,-3.0515,-3.0575,-3.0585,-3.0536,-3.0635,-3.0652,-3.0728,-3.0759,-3.0714,-3.072,-3.0932,-3.0935,-3.0938,-3.094,0,0,0,0,0,0,-3.0238,-3.0262,-3.0291,-3.0359,-3.0384,-3.0495,-3.048,-3.049,-3.0527,-3.0527,-3.0597,-3.0607,-3.0635,-3.0718,-3.0735,-3.0767,-3.0725,-3.093,-3.0934,-3.0937,-3.0938,-3.0943,-3.0947,0,0,0,0,0,-3.023,-3.0287,-3.0292,-3.0312,-3.0421,-3.0497,-3.0511,-3.0543,-3.0529,-3.0559,-3.0597,-3.0604,-3.0753,-3.0726,-3.0745,-3.078,-3.0928,-3.0933,-3.0937,-3.0935,-3.0942,-3.0947,0,0,0,0,0,0,-3.0222,-3.0296,-3.0303,-3.0383,-3.0434,-3.05,-3.0538,-3.0549,-3.0604,-3.0602,-3.0639,-3.0654,-3.0729,-3.0763,-3.0731,-3.0857,-3.084,-3.0848,-3.0832,-3.0838,-3.0843,-3.0833,-3.0731,0,0,0,0,0,-3.0229,-3.0284,-3.0347,-3.0411,-3.0436,-3.0483,-3.0517,-3.0537,-3.0591,-3.0612,-3.0656,-3.0709,-3.0767,-3.0805,-3.0862,-3.0943,-3.0958,-3.0976,-3.0981,-3.0985,-3.0991,-3.1036,-3.1044,-3.0954,-3.0954,-3.0954,0,0,-3.0245,-3.0292,-3.0325,-3.0411,-3.0452,-3.0508,-3.0501,-3.0561,-3.0603,-3.0622,-3.0696,-3.0731,-3.0792,-3.087,-3.0908,-3.0901,-3.102,-3.099,-3.0993,-3.0997,-3.1041,-3.105,-3.1057,-3.0957,-3.0956,-3.0956,0,0,-3.0302,-3.0344,-3.0402,-3.0443,-3.0506,-3.0536,-3.055,-3.0616,-3.0639,-3.0715,-3.0729,-3.0781,-3.0881,-3.0923,-3.0958,-3.1031,-3.1039,-3.1049,-3.1074,-3.1117,-3.1124,-3.113,-3.1155,-3.1164,-3.1056,-3.1056,-3.1056,0,-3.0314,-3.0399,-3.0431,-3.049,-3.0527,-3.0546,-3.0605,-3.0644,-3.0722,-3.0748,-3.0739,-3.0864,-3.0907,-3.0996,-3.1013,-3.1041,-3.1058,-3.1041,-3.112,-3.1127,-3.1133,-3.1158,-3.1167,-3.1056,-3.1056,-3.1056,-3.1056,0,-3.041,-3.0468,-3.0508,-3.0582,-3.0624,-3.0683,-3.0724,-3.0763,-3.0779,-3.0811,-3.0887,-3.0939,-3.1006,-3.1029,-3.1046,-3.1121,-3.1114,-3.1112,-3.1096,-3.1142,-3.1165,-3.1175,-3.1057,-3.1057,-3.1057,-3.1057,0,0,-3.0464,-3.0555,-3.0569,-3.0602,-3.0672,-3.0718,-3.0779,-3.0844,-3.0876,-3.093,-3.098,-3.1065,-3.1063,-3.1103,-3.1125,-3.1163,-3.1216,-3.1156,-3.1158,-3.1164,-3.13,-3.13,-3.131,-3.1223,-3.1225,-3.1226,-3.1294,0,-3.0529,-3.0635,-3.0666,-3.0755,-3.081,-3.0829,-3.0881,-3.093,-3.0961,-3.1012,-3.1048,-3.1106,-3.1101,-3.1124,-3.1163,-3.1201,-3.1243,-3.1197,-3.127,-3.1272,-3.1252,-3.1322,-3.1323,-3.1384,-3.1304,-3.1305,-3.1307,0,-3.0618,-3.0672,-3.0766,-3.0829,-3.0853,-3.0899,-3.0961,-3.101,-3.1066,-3.1086,-3.113,-3.1149,-3.1212,-3.1193,-3.1281,-3.1248,-3.128,-3.1304,-3.1307,-3.1314,-3.1291,-3.133,-3.1405,-3.1414,-3.1322,-3.132,-3.1319,0,-3.0647,-3.0743,-3.0812,-3.084,-3.0915,-3.0947,-3.098,-3.1034,-3.1072,-3.1126,-3.1151,-3.1213,-3.1246,-3.1294,-3.1329,-3.1312,-3.1413,-3.1397,-3.1431,-3.143,-3.1451,-3.1449,-3.1531,-3.1473,-3.1473,-3.1473,-3.1473,0,-3.0715,-3.0771,-3.0826,-3.0868,-3.0932,-3.0967,-3.103,-3.1064,-3.1112,-3.1162,-3.1183,-3.1229,-3.1273,-3.1325,-3.1353,-3.1421,-3.1436,-3.1454,-3.1461,-3.1452,-3.1449,-3.1472,-3.1468,-3.1476,-3.1475,-3.1475,-3.1474,0,-3.0757,-3.0796,-3.0872,-3.0936,-3.0954,-3.0998,-3.1054,-3.1096,-3.1128,-3.119,-3.1207,-3.1258,-3.132,-3.136,-3.144,-3.1458,-3.1532,-3.1538,-3.1513,-3.1516,-3.1547,-3.1543,-3.1646,-3.166,-3.1594,-3.1595,-3.1595,0,-3.0797,-3.0841,-3.091,-3.0944,-3.0977,-3.1032,-3.107,-3.1106,-3.1145,-3.1212,-3.1246,-3.1309,-3.1362,-3.146,-3.1505,-3.1565,-3.1572,-3.1604,-3.1582,-3.1571,-3.1571,-3.1568,-3.1572,-3.1607,-3.1608,-3.1608,-3.1608,0,-3.0864,-3.0881,-3.0934,-3.0994,-3.1038,-3.1087,-3.1136,-3.1163,-3.1208,-3.1251,-3.1314,-3.1355,-3.1436,-3.1498,-3.1563,-3.1598,-3.1611,-3.1615,-3.1626,-3.1617,-3.16,-3.1608,-3.1521,-3.1613,-3.1612,-3.1612,-3.1612,-3.1611,-3.0906,-3.0946,-3.1,-3.1058,-3.1099,-3.1144,-3.1186,-3.1223,-3.1277,-3.1344,-3.1363,-3.1429,-3.1484,-3.1572,-3.1608,-3.1661,-3.1657,-3.1673,-3.1677,-3.168,-3.1679,-3.1592,-3.1673,-3.1673,-3.1673,-3.1673,-3.1673,0,-3.0973,-3.1009,-3.1062,-3.1129,-3.1175,-3.1183,-3.1238,-3.1276,-3.1333,-3.1383,-3.1434,-3.1507,-3.1567,-3.1616,-3.1679,-3.1711,-3.1719,-3.1727,-3.1724,-3.1731,-3.168,-3.1663,-3.1719,-3.1719,-3.1719,-3.1719,-3.1719,-3.1719,-3.1013,-3.108,-3.1103,-3.119,-3.1226,-3.129,-3.132,-3.1362,-3.1402,-3.1482,-3.1532,-3.1563,-3.1613,-3.1679,-3.1735,-3.1748,-3.177,-3.1776,-3.179,-3.174,-3.1735,-3.173,-3.1715,-3.1781,-3.1781,-3.1837,-3.1837,-3.1838]},{"header":{"parameterUnit":"m.s-1","parameterCategory":1,"la1":30.2991,"la2":30.254,"lo1":-89.0895,"lo2":-89.0444,"dy":0.0017,"dx":0.0017,"nx":28,"ny":28,"refTime":"2024-05-30T09:00:00:Z","depth":0,"parameterNumber":3,"parameterNumberName":"V-component_of_WINDS"},"data":[0,0,0,0,0,0,0,0,0,0,0,0,0,0,0,0,0,0,0,0,0,0,0,0,0,0,0,0,0,0,0,0,0,0,0,0,0,0,0,0,0,0,0,0,0,0,0,0,0,0,0,0,0,0,0,0,0,0,5.2158,5.2159,0,5.2273,5.2274,5.2275,5.2246,5.2244,5.2241,5.2239,5.2352,5.2357,5.2362,0,0,0,0,0,0,0,0,0,0,0,0,0,5.1908,5.1913,5.2158,5.2159,5.2161,5.2272,5.2274,5.2276,5.2246,5.2243,5.2241,5.2238,5.235,5.2356,5.2362,0,0,0,0,0,0,0,0,0,0,0,0,0,5.2019,5.1914,5.2158,5.216,5.2161,5.2272,5.2274,5.2276,5.2247,5.2243,5.224,5.2237,5.2348,5.2355,5.2363,5.2478,0,0,5.2386,5.239,0,0,0,0,0,0,0,0,5.2013,5.2028,5.2158,5.216,5.2161,5.2242,5.2227,5.2343,5.2248,5.2214,5.2239,5.2235,5.2317,5.2327,5.2356,5.2483,5.2488,5.2387,5.2392,5.2395,5.2397,0,0,0,0,0,0,0,5.2005,5.2023,5.2203,5.216,5.2162,5.2153,5.2165,5.2249,5.2283,5.2217,5.2215,5.2229,5.2318,5.2349,5.2358,5.2489,5.2387,5.2393,5.2398,5.2401,5.2714,5.2718,0,0,0,0,0,0,5.1997,5.2017,5.2199,5.2207,5.2077,5.216,5.2174,5.2219,5.2282,5.2289,5.2232,5.2227,5.2337,5.235,5.2362,5.25,5.2395,5.2402,5.2406,5.271,5.2715,5.2719,0,0,0,0,0,0,5.1991,5.2013,5.2195,5.2111,5.2134,5.2168,5.2219,5.2223,5.2254,5.2294,5.2299,5.2258,5.2335,5.2352,5.2449,5.2503,5.2405,5.2412,5.2706,5.2712,5.2717,5.2775,0,0,0,0,0,0,5.1984,5.2012,5.2057,5.2113,5.2138,5.2282,5.2223,5.2228,5.2268,5.2263,5.2319,5.2325,5.2334,5.2438,5.2457,5.2512,5.2418,5.2701,5.2709,5.2715,5.2769,5.2782,5.2794,0,0,0,0,0,5.1976,5.2068,5.2059,5.2081,5.2196,5.2285,5.2299,5.2309,5.2273,5.2317,5.2343,5.2324,5.2495,5.2448,5.2469,5.2527,5.2698,5.2706,5.2715,5.2763,5.278,5.2794,0,0,0,0,0,0,5.2016,5.2075,5.2066,5.218,5.2228,5.228,5.2336,5.2326,5.2384,5.2376,5.2384,5.2397,5.2496,5.2522,5.2469,5.2641,5.2591,5.2604,5.262,5.2636,5.2649,5.264,5.2425,0,0,0,0,0,5.2039,5.2107,5.2155,5.225,5.2275,5.2302,5.2341,5.2344,5.2393,5.2412,5.2445,5.2492,5.2556,5.2598,5.2659,5.2773,5.2783,5.2823,5.2835,5.2846,5.2856,5.2917,5.2934,5.2746,5.2746,5.2746,0,0,5.2085,5.2126,5.2168,5.2259,5.2297,5.2366,5.2319,5.2394,5.2445,5.2423,5.2518,5.2543,5.2596,5.2702,5.275,5.2726,5.2911,5.2856,5.2864,5.2869,5.2927,5.2945,5.2961,5.2752,5.2751,5.275,0,0,5.2204,5.2243,5.2327,5.2365,5.2423,5.244,5.246,5.2514,5.253,5.2626,5.261,5.267,5.2781,5.2819,5.2852,5.2986,5.297,5.3006,5.3071,5.313,5.3144,5.3158,5.3204,5.322,5.3017,5.3017,5.3017,0,5.2254,5.236,5.237,5.2447,5.2487,5.2472,5.2555,5.2592,5.2666,5.2693,5.2665,5.2803,5.2838,5.2952,5.2984,5.3013,5.3034,5.2999,5.3142,5.3155,5.3167,5.3211,5.3229,5.3021,5.302,5.302,5.3019,0,5.2417,5.2491,5.2551,5.2624,5.2671,5.275,5.2771,5.2816,5.2816,5.2835,5.2931,5.2972,5.3041,5.3068,5.3068,5.3182,5.3165,5.314,5.3089,5.3189,5.323,5.3247,5.3026,5.3025,5.3024,5.3023,0,0,5.2565,5.2644,5.2665,5.2698,5.276,5.2816,5.2895,5.2963,5.3001,5.3053,5.3117,5.3212,5.3189,5.3227,5.323,5.3282,5.3384,5.325,5.3252,5.3272,5.351,5.3527,5.3547,5.3374,5.3377,5.338,5.3505,0,5.2689,5.2829,5.284,5.2965,5.3032,5.3018,5.3086,5.3131,5.3151,5.3209,5.3231,5.3297,5.3263,5.3285,5.3336,5.3361,5.3431,5.3352,5.3432,5.3435,5.3418,5.3569,5.3588,5.3704,5.3521,5.3524,5.3526,0,5.2853,5.291,5.3042,5.3094,5.3123,5.3184,5.3247,5.3304,5.3353,5.3364,5.3407,5.3404,5.3482,5.343,5.3537,5.3483,5.3516,5.3533,5.3538,5.3544,5.3485,5.3578,5.3741,5.3758,5.3552,5.355,5.3548,0,5.2945,5.3056,5.3149,5.3177,5.3241,5.3284,5.3312,5.3359,5.3399,5.3454,5.348,5.3543,5.3577,5.3625,5.3637,5.3598,5.3743,5.3693,5.3753,5.3753,5.3783,5.378,5.3952,5.3807,5.3807,5.3806,5.3806,0,5.3082,5.3162,5.3191,5.3248,5.3337,5.3349,5.3437,5.3462,5.3504,5.3564,5.3556,5.3612,5.3626,5.3685,5.3695,5.3781,5.3797,5.3807,5.3808,5.3807,5.3805,5.3827,5.3819,5.3811,5.381,5.3809,5.3808,0,5.32,5.3222,5.3322,5.3375,5.339,5.3453,5.3497,5.3551,5.357,5.3647,5.3665,5.3695,5.3763,5.3781,5.3863,5.3869,5.397,5.3965,5.3954,5.3953,5.4012,5.4006,5.4203,5.4228,5.4068,5.407,5.4071,0,5.3285,5.3347,5.3406,5.3446,5.3477,5.3542,5.3583,5.3597,5.364,5.3701,5.3747,5.3815,5.3869,5.3979,5.4007,5.4069,5.4064,5.4129,5.4073,5.4069,5.4063,5.4058,5.4064,5.4138,5.414,5.4142,5.4143,0,5.3432,5.344,5.3501,5.3566,5.3616,5.3667,5.3716,5.3749,5.3769,5.3817,5.3888,5.393,5.4014,5.4081,5.4143,5.417,5.4159,5.416,5.4177,5.4175,5.4166,5.417,5.3981,5.4155,5.4154,5.4153,5.4152,5.4152,5.3535,5.3589,5.3639,5.3707,5.3745,5.3791,5.3844,5.387,5.393,5.4,5.4004,5.408,5.4127,5.421,5.4241,5.4299,5.4279,5.4304,5.431,5.4316,5.432,5.4158,5.4311,5.431,5.431,5.431,5.4309,0,5.3681,5.3713,5.3775,5.3844,5.3897,5.3884,5.3937,5.3981,5.4049,5.4095,5.4149,5.4229,5.4294,5.4327,5.4391,5.4431,5.4427,5.4447,5.4443,5.4449,5.4335,5.4313,5.4449,5.4449,5.4449,5.4449,5.4449,5.4449,5.3764,5.3854,5.3868,5.3976,5.4007,5.4082,5.4114,5.4155,5.4191,5.4282,5.4336,5.4358,5.4398,5.4464,5.4522,5.453,5.4553,5.4575,5.458,5.4472,5.4458,5.4444,5.4424,5.458,5.458,5.4689,5.469,5.4691]}]]